| time (UTC) | temp C | wind direction | speed KPH | gust KPH | rain 1hr cm | rain 24hr cm | rain mn cm | humidity % | barometer mb |
| 20260505035603 | 16 | 178 | 0.0 | 1.6 | 0.00 | 0.00 | 0.00 | 47 | 1005.6 |
| 20260505035402 | 16 | 178 | 0.0 | 6.4 | 0.00 | 0.00 | 0.00 | 47 | 1005.6 |
| 20260505035202 | 16 | 178 | 0.0 | 6.4 | 0.00 | 0.00 | 0.00 | 46 | 1005.6 |
| 20260505035004 | 17 | 178 | 0.0 | 6.4 | 0.00 | 0.00 | 0.00 | 46 | 1005.5 |
| 20260505034802 | 17 | 178 | 0.0 | 6.4 | 0.00 | 0.00 | 0.00 | 46 | 1005.5 |
| 20260505034603 | 17 | 178 | 1.6 | 6.4 | 0.00 | 0.00 | 0.00 | 46 | 1005.5 |
| 20260505034402 | 17 | 199 | 0.0 | 0.0 | 0.00 | 0.00 | 0.00 | 46 | 1005.5 |
| 20260505034202 | 17 | 199 | 0.0 | 3.2 | 0.00 | 0.00 | 0.00 | 45 | 1005.4 |
| 20260505034004 | 17 | 199 | 0.0 | 3.2 | 0.00 | 0.00 | 0.00 | 45 | 1005.4 |
| 20260505033603 | 17 | 199 | 0.0 | 8.0 | 0.00 | 0.00 | 0.00 | 44 | 1005.3 |
| 20260505033203 | 17 | 203 | 1.6 | 16.1 | 0.00 | 0.00 | 0.00 | 43 | 1005.2 |
| 20260505033004 | 17 | 186 | 3.2 | 16.1 | 0.00 | 0.00 | 0.00 | 43 | 1005.2 |
| 20260505032804 | 17 | 180 | 1.6 | 16.1 | 0.00 | 0.00 | 0.00 | 42 | 1005.2 |
| 20260505032602 | 17 | 180 | 4.8 | 16.1 | 0.00 | 0.00 | 0.00 | 42 | 1005.1 |
| 20260505032202 | 17 | 188 | 1.6 | 9.7 | 0.00 | 0.00 | 0.00 | 42 | 1005.1 |
| 20260505031603 | 17 | 202 | 0.0 | 1.6 | 0.00 | 0.00 | 0.00 | 42 | 1004.8 |
| 20260505031403 | 17 | 202 | 0.0 | 1.6 | 0.00 | 0.00 | 0.00 | 41 | 1004.8 |
| 20260505031203 | 17 | 202 | 0.0 | 1.6 | 0.00 | 0.00 | 0.00 | 41 | 1004.7 |
| 20260505031004 | 17 | 202 | 0.0 | 1.6 | 0.00 | 0.00 | 0.00 | 41 | 1004.8 |
| 20260505030804 | 17 | 202 | 0.0 | 1.6 | 0.00 | 0.00 | 0.00 | 40 | 1004.7 |
| 20260505030604 | 18 | 202 | 0.0 | 1.6 | 0.00 | 0.00 | 0.00 | 40 | 1004.7 |
| 20260505030403 | 18 | 202 | 0.0 | 1.6 | 0.00 | 0.00 | 0.00 | 40 | 1004.6 |
| 20260505030204 | 18 | 202 | 0.0 | 1.6 | 0.00 | 0.00 | 0.00 | 40 | 1004.6 |
| 20260505030002 | 18 | 202 | 0.0 | 1.6 | 0.00 | 0.00 | 0.00 | 40 | 1004.5 |
| 20260505025801 | 18 | 202 | 0.0 | 1.6 | 0.00 | 0.00 | 0.00 | 40 | 1004.5 |
| 20260505025601 | 18 | 202 | 0.0 | 1.6 | 0.00 | 0.00 | 0.00 | 39 | 1004.5 |
| 20260505025201 | 18 | 202 | 0.0 | 1.6 | 0.00 | 0.00 | 0.00 | 39 | 1004.5 |
| 20260505025002 | 18 | 202 | 0.0 | 1.6 | 0.00 | 0.00 | 0.00 | 39 | 1004.5 |
| 20260505024803 | 18 | 202 | 0.0 | 1.6 | 0.00 | 0.00 | 0.00 | 39 | 1004.5 |
| 20260505024402 | 18 | 202 | 0.0 | 1.6 | 0.00 | 0.00 | 0.00 | 38 | 1004.4 |
| 20260505024202 | 18 | 202 | 0.0 | 1.6 | 0.00 | 0.00 | 0.00 | 38 | 1004.2 |
| 20260505024001 | 18 | 202 | 0.0 | 3.2 | 0.00 | 0.00 | 0.00 | 38 | 1004.2 |
| 20260505023802 | 18 | 202 | 1.6 | 3.2 | 0.00 | 0.00 | 0.00 | 37 | 1004.3 |
| 20260505023602 | 18 | 202 | 0.0 | 4.8 | 0.00 | 0.00 | 0.00 | 37 | 1004.3 |
| 20260505023402 | 19 | 202 | 0.0 | 4.8 | 0.00 | 0.00 | 0.00 | 36 | 1004.3 |
| 20260505023201 | 19 | 202 | 0.0 | 4.8 | 0.00 | 0.00 | 0.00 | 36 | 1004.3 |
| 20260505023002 | 19 | 202 | 1.6 | 4.8 | 0.00 | 0.00 | 0.00 | 36 | 1004.4 |
| 20260505022802 | 19 | 202 | 1.6 | 4.8 | 0.00 | 0.00 | 0.00 | 36 | 1004.3 |
| 20260505022602 | 19 | 202 | 0.0 | 4.8 | 0.00 | 0.00 | 0.00 | 35 | 1004.3 |
| 20260505022401 | 20 | 202 | 1.6 | 6.4 | 0.00 | 0.00 | 0.00 | 36 | 1004.2 |
| 20260505022202 | 20 | 202 | 0.0 | 6.4 | 0.00 | 0.00 | 0.00 | 35 | 1004.2 |
| 20260505022002 | 20 | 202 | 1.6 | 6.4 | 0.00 | 0.00 | 0.00 | 35 | 1004.2 |
| 20260505021602 | 20 | 190 | 1.6 | 6.4 | 0.00 | 0.00 | 0.00 | 35 | 1004.2 |
| 20260505021402 | 20 | 186 | 1.6 | 9.7 | 0.00 | 0.00 | 0.00 | 35 | 1004.2 |
| 20260505021201 | 20 | 186 | 1.6 | 9.7 | 0.00 | 0.00 | 0.00 | 35 | 1004.3 |
| 20260505021001 | 20 | 186 | 3.2 | 9.7 | 0.00 | 0.00 | 0.00 | 34 | 1004.2 |
| 20260505020802 | 20 | 186 | 4.8 | 9.7 | 0.00 | 0.00 | 0.00 | 33 | 1004.2 |
| 20260505020602 | 20 | 178 | 4.8 | 8.0 | 0.00 | 0.00 | 0.00 | 33 | 1004.2 |
| 20260505020202 | 21 | 183 | 1.6 | 9.7 | 0.00 | 0.00 | 0.00 | 32 | 1004.2 |
| 20260505020004 | 21 | 183 | 3.2 | 9.7 | 0.00 | 0.00 | 0.00 | 31 | 1004.2 |
| 20260505015804 | 21 | 185 | 3.2 | 9.7 | 0.00 | 0.00 | 0.00 | 31 | 1004.1 |
| 20260505015602 | 21 | 185 | 3.2 | 9.7 | 0.00 | 0.00 | 0.00 | 31 | 1004.1 |
| 20260505015403 | 21 | 192 | 3.2 | 8.0 | 0.00 | 0.00 | 0.00 | 31 | 1004.2 |
| 20260505014803 | 21 | 188 | 3.2 | 8.0 | 0.00 | 0.00 | 0.00 | 31 | 1004.1 |
| 20260505014602 | 21 | 192 | 1.6 | 9.7 | 0.00 | 0.00 | 0.00 | 31 | 1004.1 |
| 20260505014402 | 21 | 192 | 1.6 | 9.7 | 0.00 | 0.00 | 0.00 | 31 | 1004.1 |
| 20260505014202 | 21 | 192 | 3.2 | 9.7 | 0.00 | 0.00 | 0.00 | 30 | 1004.1 |
| 20260505014003 | 21 | 192 | 4.8 | 9.7 | 0.00 | 0.00 | 0.00 | 30 | 1004.1 |
| 20260505013802 | 21 | 166 | 4.8 | 9.7 | 0.00 | 0.00 | 0.00 | 30 | 1004.2 |
| 20260505013604 | 21 | 195 | 4.8 | 9.7 | 0.00 | 0.00 | 0.00 | 29 | 1004.2 |
| 20260505013205 | 21 | 195 | 4.8 | 14.5 | 0.00 | 0.00 | 0.00 | 29 | 1004.2 |
| 20260505012803 | 21 | 188 | 4.8 | 14.5 | 0.00 | 0.00 | 0.00 | 28 | 1004.1 |
| 20260505012604 | 21 | 182 | 6.4 | 14.5 | 0.00 | 0.00 | 0.00 | 28 | 1004.2 |
| 20260505012403 | 22 | 196 | 9.7 | 14.5 | 0.00 | 0.00 | 0.00 | 28 | 1004.1 |
| 20260505012202 | 22 | 203 | 4.8 | 12.9 | 0.00 | 0.00 | 0.00 | 29 | 1004.1 |
| 20260505011803 | 22 | 190 | 4.8 | 11.3 | 0.00 | 0.00 | 0.00 | 29 | 1004.2 |
| 20260505011602 | 22 | 178 | 8.0 | 11.3 | 0.00 | 0.00 | 0.00 | 28 | 1004.2 |
| 20260505011403 | 22 | 206 | 4.8 | 14.5 | 0.00 | 0.00 | 0.00 | 28 | 1004.3 |
| 20260505011202 | 22 | 178 | 4.8 | 14.5 | 0.00 | 0.00 | 0.00 | 29 | 1004.2 |
| 20260505011004 | 22 | 189 | 1.6 | 14.5 | 0.00 | 0.00 | 0.00 | 29 | 1004.3 |
| 20260505010802 | 22 | 189 | 4.8 | 14.5 | 0.00 | 0.00 | 0.00 | 28 | 1004.3 |
| 20260505010603 | 22 | 156 | 4.8 | 14.5 | 0.00 | 0.00 | 0.00 | 28 | 1004.3 |
| 20260505010203 | 22 | 180 | 3.2 | 14.5 | 0.00 | 0.00 | 0.00 | 29 | 1004.4 |
| 20260505010005 | 22 | 186 | 6.4 | 14.5 | 0.00 | 0.00 | 0.00 | 28 | 1004.4 |
| 20260505005802 | 22 | 175 | 4.8 | 14.5 | 0.00 | 0.00 | 0.00 | 28 | 1004.4 |
| 20260505005401 | 22 | 166 | 6.4 | 14.5 | 0.00 | 0.00 | 0.00 | 28 | 1004.4 |
| 20260505005002 | 22 | 165 | 4.8 | 16.1 | 0.00 | 0.00 | 0.00 | 29 | 1004.5 |
| 20260505004802 | 22 | 194 | 3.2 | 16.1 | 0.00 | 0.00 | 0.00 | 29 | 1004.4 |
| 20260505004601 | 22 | 194 | 1.6 | 16.1 | 0.00 | 0.00 | 0.00 | 28 | 1004.5 |
| 20260505004002 | 22 | 186 | 6.4 | 17.7 | 0.00 | 0.00 | 0.00 | 28 | 1004.5 |
| 20260505003801 | 22 | 180 | 6.4 | 17.7 | 0.00 | 0.00 | 0.00 | 28 | 1004.5 |
| 20260505003402 | 22 | 196 | 9.7 | 17.7 | 0.00 | 0.00 | 0.00 | 28 | 1004.6 |
| 20260505003002 | 22 | 196 | 6.4 | 12.9 | 0.00 | 0.00 | 0.00 | 28 | 1004.6 |
| 20260505002801 | 22 | 198 | 8.0 | 12.9 | 0.00 | 0.00 | 0.00 | 28 | 1004.7 |
| 20260505002601 | 22 | 178 | 9.7 | 19.3 | 0.00 | 0.00 | 0.00 | 27 | 1004.7 |
| 20260505002401 | 22 | 184 | 8.0 | 19.3 | 0.00 | 0.00 | 0.00 | 28 | 1004.7 |
| 20260505002201 | 22 | 169 | 8.0 | 19.3 | 0.00 | 0.00 | 0.00 | 28 | 1004.7 |
| 20260505002002 | 22 | 183 | 8.0 | 19.3 | 0.00 | 0.00 | 0.00 | 29 | 1004.7 |
| 20260505001602 | 22 | 202 | 4.8 | 14.5 | 0.00 | 0.00 | 0.00 | 29 | 1004.6 |
| 20260505001401 | 22 | 154 | 3.2 | 12.9 | 0.00 | 0.00 | 0.00 | 29 | 1004.7 |
| 20260505001002 | 22 | 146 | 3.2 | 19.3 | 0.00 | 0.00 | 0.00 | 30 | 1004.7 |
| 20260505000802 | 22 | 173 | 3.2 | 19.3 | 0.00 | 0.00 | 0.00 | 30 | 1004.8 |
| 20260505000601 | 22 | 212 | 9.7 | 19.3 | 0.00 | 0.00 | 0.00 | 29 | 1004.8 |
| 20260505000401 | 22 | 191 | 12.9 | 19.3 | 0.00 | 0.00 | 0.00 | 29 | 1004.8 |
| 20260505000204 | 22 | 182 | 8.0 | 19.3 | 0.00 | 0.00 | 0.00 | 29 | 1004.8 |
| 20260505000004 | 22 | 187 | 9.7 | 19.3 | 0.00 | 0.00 | 0.00 | 29 | 1004.8 |
| 20260504235803 | 22 | 134 | 6.4 | 19.3 | 0.00 | 0.00 | 0.00 | 30 | 1004.8 |
| 20260504235602 | 22 | 194 | 11.3 | 19.3 | 0.00 | 0.00 | 0.00 | 29 | 1004.8 |
| 20260504235402 | 22 | 200 | 8.0 | 14.5 | 0.00 | 0.00 | 0.00 | 29 | 1004.8 |
| 20260504235203 | 22 | 215 | 9.7 | 16.1 | 0.00 | 0.00 | 0.00 | 28 | 1004.9 |
| 20260504234802 | 22 | 198 | 8.0 | 17.7 | 0.00 | 0.00 | 0.00 | 30 | 1004.9 |
| 20260504234602 | 22 | 200 | 9.7 | 17.7 | 0.00 | 0.00 | 0.00 | 30 | 1005.0 |
| 20260504234203 | 22 | 188 | 11.3 | 19.3 | 0.00 | 0.00 | 0.00 | 30 | 1005.0 |
| 20260504234003 | 22 | 178 | 11.3 | 16.1 | 0.00 | 0.00 | 0.00 | 30 | 1004.9 |
| 20260504233803 | 23 | 194 | 9.7 | 16.1 | 0.00 | 0.00 | 0.00 | 30 | 1004.9 |
| 20260504233601 | 23 | 186 | 11.3 | 16.1 | 0.00 | 0.00 | 0.00 | 28 | 1005.0 |
| 20260504233401 | 23 | 207 | 11.3 | 24.1 | 0.00 | 0.00 | 0.00 | 27 | 1004.9 |
| 20260504233201 | 23 | 184 | 6.4 | 24.1 | 0.00 | 0.00 | 0.00 | 26 | 1004.8 |
| 20260504233001 | 23 | 217 | 8.0 | 24.1 | 0.00 | 0.00 | 0.00 | 27 | 1004.9 |
| 20260504232801 | 23 | 196 | 6.4 | 24.1 | 0.00 | 0.00 | 0.00 | 27 | 1004.8 |
| 20260504232602 | 23 | 185 | 9.7 | 24.1 | 0.00 | 0.00 | 0.00 | 26 | 1004.8 |
| 20260504232402 | 23 | 220 | 6.4 | 16.1 | 0.00 | 0.00 | 0.00 | 26 | 1004.8 |
| 20260504232201 | 23 | 207 | 4.8 | 11.3 | 0.00 | 0.00 | 0.00 | 26 | 1004.8 |
| 20260504231802 | 23 | 200 | 4.8 | 14.5 | 0.00 | 0.00 | 0.00 | 26 | 1004.8 |
| 20260504231601 | 23 | 163 | 3.2 | 17.7 | 0.00 | 0.00 | 0.00 | 27 | 1004.9 |
| 20260504231201 | 23 | 213 | 6.4 | 17.7 | 0.00 | 0.00 | 0.00 | 27 | 1004.9 |
| 20260504231001 | 23 | 183 | 8.0 | 17.7 | 0.00 | 0.00 | 0.00 | 26 | 1004.8 |
| 20260504230801 | 23 | 200 | 8.0 | 19.3 | 0.00 | 0.00 | 0.00 | 26 | 1004.8 |
| 20260504230602 | 23 | 175 | 4.8 | 19.3 | 0.00 | 0.00 | 0.00 | 25 | 1004.9 |
| 20260504230402 | 23 | 221 | 8.0 | 19.3 | 0.00 | 0.00 | 0.00 | 25 | 1004.9 |
| 20260504230202 | 23 | 155 | 8.0 | 19.3 | 0.00 | 0.00 | 0.00 | 25 | 1004.9 |
| 20260504230002 | 23 | 207 | 6.4 | 19.3 | 0.00 | 0.00 | 0.00 | 26 | 1004.9 |
| 20260504225802 | 23 | 138 | 6.4 | 16.1 | 0.00 | 0.00 | 0.00 | 26 | 1004.9 |
| 20260504225601 | 23 | 205 | 8.0 | 16.1 | 0.00 | 0.00 | 0.00 | 25 | 1004.9 |
| 20260504225401 | 23 | 223 | 4.8 | 17.7 | 0.00 | 0.00 | 0.00 | 28 | 1004.8 |
| 20260504225202 | 23 | 176 | 3.2 | 17.7 | 0.00 | 0.00 | 0.00 | 28 | 1004.9 |
| 20260504225003 | 23 | 153 | 3.2 | 17.7 | 0.00 | 0.00 | 0.00 | 30 | 1004.8 |
| 20260504224802 | 22 | 209 | 8.0 | 17.7 | 0.00 | 0.00 | 0.00 | 30 | 1004.9 |
| 20260504224602 | 22 | 217 | 8.0 | 17.7 | 0.00 | 0.00 | 0.00 | 29 | 1004.8 |
| 20260504224402 | 22 | 223 | 9.7 | 20.9 | 0.00 | 0.00 | 0.00 | 28 | 1004.9 |
| 20260504224201 | 22 | 171 | 11.3 | 20.9 | 0.00 | 0.00 | 0.00 | 28 | 1004.9 |
| 20260504223802 | 23 | 250 | 9.7 | 20.9 | 0.00 | 0.00 | 0.00 | 28 | 1004.9 |
| 20260504223601 | 23 | 299 | 8.0 | 22.5 | 0.00 | 0.00 | 0.00 | 28 | 1004.9 |
| 20260504223401 | 23 | 178 | 9.7 | 22.5 | 0.00 | 0.00 | 0.00 | 27 | 1004.9 |
| 20260504223202 | 23 | 162 | 14.5 | 22.5 | 0.00 | 0.00 | 0.00 | 27 | 1004.8 |
| 20260504223001 | 23 | 223 | 8.0 | 25.7 | 0.00 | 0.00 | 0.00 | 28 | 1004.8 |
| 20260504222802 | 23 | 199 | 3.2 | 25.7 | 0.00 | 0.00 | 0.00 | 29 | 1004.9 |
| 20260504222602 | 23 | 192 | 4.8 | 25.7 | 0.00 | 0.00 | 0.00 | 29 | 1004.9 |
| 20260504222403 | 23 | 280 | 11.3 | 25.7 | 0.00 | 0.00 | 0.00 | 29 | 1004.8 |
| 20260504222202 | 23 | 223 | 9.7 | 25.7 | 0.00 | 0.00 | 0.00 | 28 | 1004.9 |
| 20260504221801 | 23 | 223 | 3.2 | 12.9 | 0.00 | 0.00 | 0.00 | 28 | 1005.0 |
| 20260504221602 | 23 | 248 | 4.8 | 12.9 | 0.00 | 0.00 | 0.00 | 28 | 1004.9 |
| 20260504221402 | 24 | 268 | 6.4 | 12.9 | 0.00 | 0.00 | 0.00 | 27 | 1004.9 |
| 20260504221202 | 25 | 215 | 4.8 | 16.1 | 0.00 | 0.00 | 0.00 | 23 | 1004.9 |
| 20260504221002 | 25 | 284 | 3.2 | 16.1 | 0.00 | 0.00 | 0.00 | 23 | 1004.8 |
| 20260504220801 | 24 | 217 | 6.4 | 16.1 | 0.00 | 0.00 | 0.00 | 21 | 1004.8 |
| 20260504220401 | 25 | 201 | 9.7 | 16.1 | 0.00 | 0.00 | 0.00 | 21 | 1004.9 |
| 20260504220202 | 25 | 283 | 4.8 | 11.3 | 0.00 | 0.00 | 0.00 | 21 | 1004.9 |
| 20260504220005 | 25 | 251 | 4.8 | 11.3 | 0.00 | 0.00 | 0.00 | 21 | 1005.0 |
| 20260504215803 | 25 | 288 | 3.2 | 11.3 | 0.00 | 0.00 | 0.00 | 23 | 1004.9 |
| 20260504215603 | 25 | 237 | 4.8 | 11.3 | 0.00 | 0.00 | 0.00 | 23 | 1005.0 |
| 20260504215403 | 25 | 257 | 4.8 | 11.3 | 0.00 | 0.00 | 0.00 | 23 | 1005.0 |
| 20260504215202 | 25 | 233 | 4.8 | 11.3 | 0.00 | 0.00 | 0.00 | 23 | 1005.0 |
| 20260504215003 | 24 | 302 | 3.2 | 8.0 | 0.00 | 0.00 | 0.00 | 25 | 1005.0 |
| 20260504214803 | 23 | 336 | 3.2 | 6.4 | 0.00 | 0.00 | 0.00 | 22 | 1005.0 |
| 20260504214602 | 23 | 304 | 3.2 | 8.0 | 0.00 | 0.00 | 0.00 | 21 | 1005.1 |
| 20260504214403 | 24 | 306 | 1.6 | 11.3 | 0.00 | 0.00 | 0.00 | 20 | 1005.1 |
| 20260504214203 | 24 | 307 | 3.2 | 11.3 | 0.00 | 0.00 | 0.00 | 21 | 1005.2 |
| 20260504213803 | 25 | 233 | 4.8 | 11.3 | 0.00 | 0.00 | 0.00 | 22 | 1005.3 |
| 20260504213602 | 24 | 204 | 6.4 | 11.3 | 0.00 | 0.00 | 0.00 | 21 | 1005.3 |
| 20260504213403 | 25 | 290 | 4.8 | 12.9 | 0.00 | 0.00 | 0.00 | 23 | 1005.3 |
| 20260504213202 | 24 | 247 | 1.6 | 14.5 | 0.00 | 0.00 | 0.00 | 24 | 1005.3 |
| 20260504213002 | 23 | 355 | 3.2 | 16.1 | 0.00 | 0.00 | 0.00 | 22 | 1005.4 |
| 20260504212803 | 23 | 289 | 6.4 | 16.1 | 0.00 | 0.00 | 0.00 | 24 | 1005.5 |
| 20260504212403 | 24 | 251 | 8.0 | 16.1 | 0.00 | 0.00 | 0.00 | 21 | 1005.5 |
| 20260504212203 | 25 | 320 | 1.6 | 16.1 | 0.00 | 0.00 | 0.00 | 23 | 1005.5 |
| 20260504212003 | 24 | 254 | 1.6 | 8.0 | 0.00 | 0.00 | 0.00 | 25 | 1005.5 |
| 20260504211803 | 23 | 204 | 1.6 | 14.5 | 0.00 | 0.00 | 0.00 | 24 | 1005.5 |
| 20260504211603 | 23 | 286 | 3.2 | 14.5 | 0.00 | 0.00 | 0.00 | 23 | 1005.5 |
| 20260504211402 | 23 | 313 | 4.8 | 14.5 | 0.00 | 0.00 | 0.00 | 23 | 1005.6 |
| 20260504211203 | 23 | 295 | 6.4 | 14.5 | 0.00 | 0.00 | 0.00 | 22 | 1005.6 |
| 20260504211003 | 23 | 302 | 6.4 | 14.5 | 0.00 | 0.00 | 0.00 | 24 | 1005.5 |
| 20260504210803 | 23 | 337 | 8.0 | 14.5 | 0.00 | 0.00 | 0.00 | 24 | 1005.6 |
| 20260504210403 | 23 | 285 | 6.4 | 14.5 | 0.00 | 0.00 | 0.00 | 24 | 1005.6 |
| 20260504210203 | 23 | 280 | 4.8 | 14.5 | 0.00 | 0.00 | 0.00 | 24 | 1005.6 |
| 20260504210004 | 23 | 263 | 8.0 | 14.5 | 0.00 | 0.00 | 0.00 | 24 | 1005.6 |
| 20260504205801 | 23 | 286 | 4.8 | 14.5 | 0.00 | 0.00 | 0.00 | 24 | 1005.6 |
| 20260504205401 | 23 | 300 | 6.4 | 14.5 | 0.00 | 0.00 | 0.00 | 25 | 1005.7 |
| 20260504205201 | 23 | 9 | 4.8 | 16.1 | 0.00 | 0.00 | 0.00 | 24 | 1005.7 |
| 20260504205003 | 23 | 346 | 3.2 | 16.1 | 0.00 | 0.00 | 0.00 | 24 | 1005.8 |
| 20260504204802 | 23 | 302 | 4.8 | 16.1 | 0.00 | 0.00 | 0.00 | 24 | 1005.8 |
| 20260504204602 | 23 | 327 | 6.4 | 16.1 | 0.00 | 0.00 | 0.00 | 23 | 1005.8 |
| 20260504204402 | 24 | 285 | 8.0 | 16.1 | 0.00 | 0.00 | 0.00 | 24 | 1005.8 |
| 20260504204203 | 24 | 326 | 6.4 | 12.9 | 0.00 | 0.00 | 0.00 | 25 | 1005.8 |
| 20260504203803 | 24 | 292 | 4.8 | 11.3 | 0.00 | 0.00 | 0.00 | 23 | 1005.9 |
| 20260504203602 | 24 | 322 | 4.8 | 8.0 | 0.00 | 0.00 | 0.00 | 24 | 1005.9 |
| 20260504203402 | 23 | 285 | 3.2 | 12.9 | 0.00 | 0.00 | 0.00 | 25 | 1006.0 |
| 20260504203202 | 23 | 281 | 4.8 | 12.9 | 0.00 | 0.00 | 0.00 | 24 | 1005.9 |
| 20260504203001 | 24 | 15 | 3.2 | 16.1 | 0.00 | 0.00 | 0.00 | 23 | 1005.9 |
| 20260504202801 | 24 | 252 | 3.2 | 16.1 | 0.00 | 0.00 | 0.00 | 25 | 1006.0 |
| 20260504202401 | 24 | 328 | 6.4 | 16.1 | 0.00 | 0.00 | 0.00 | 25 | 1006.0 |
| 20260504202202 | 24 | 286 | 6.4 | 20.9 | 0.00 | 0.00 | 0.00 | 27 | 1006.1 |
| 20260504202001 | 24 | 206 | 6.4 | 20.9 | 0.00 | 0.00 | 0.00 | 24 | 1006.0 |
| 20260504201801 | 23 | 220 | 6.4 | 20.9 | 0.00 | 0.00 | 0.00 | 25 | 1006.0 |
| 20260504201601 | 23 | 317 | 8.0 | 20.9 | 0.00 | 0.00 | 0.00 | 24 | 1006.0 |
| 20260504201401 | 23 | 288 | 8.0 | 20.9 | 0.00 | 0.00 | 0.00 | 25 | 1006.0 |
| 20260504201201 | 23 | 250 | 8.0 | 19.3 | 0.00 | 0.00 | 0.00 | 27 | 1005.9 |
| 20260504201002 | 23 | 328 | 8.0 | 19.3 | 0.00 | 0.00 | 0.00 | 26 | 1006.0 |
| 20260504200802 | 23 | 313 | 8.0 | 16.1 | 0.00 | 0.00 | 0.00 | 26 | 1006.0 |
| 20260504200602 | 23 | 329 | 6.4 | 16.1 | 0.00 | 0.00 | 0.00 | 26 | 1006.0 |
| 20260504200401 | 23 | 300 | 8.0 | 16.1 | 0.00 | 0.00 | 0.00 | 26 | 1006.1 |
| 20260504200202 | 23 | 292 | 6.4 | 16.1 | 0.00 | 0.00 | 0.00 | 27 | 1006.2 |
| 20260504200003 | 23 | 312 | 6.4 | 16.1 | 0.00 | 0.00 | 0.00 | 26 | 1006.1 |
| 20260504195801 | 24 | 285 | 6.4 | 16.1 | 0.00 | 0.00 | 0.00 | 26 | 1006.1 |
| 20260504195601 | 24 | 296 | 6.4 | 16.1 | 0.00 | 0.00 | 0.00 | 26 | 1006.1 |
| 20260504195401 | 24 | 250 | 4.8 | 16.1 | 0.00 | 0.00 | 0.00 | 27 | 1006.2 |
| 20260504195202 | 24 | 244 | 4.8 | 16.1 | 0.00 | 0.00 | 0.00 | 27 | 1006.2 |
| 20260504195002 | 23 | 311 | 4.8 | 11.3 | 0.00 | 0.00 | 0.00 | 26 | 1006.2 |
| 20260504194801 | 23 | 219 | 4.8 | 11.3 | 0.00 | 0.00 | 0.00 | 26 | 1006.2 |
| 20260504194602 | 23 | 230 | 3.2 | 12.9 | 0.00 | 0.00 | 0.00 | 26 | 1006.3 |
| 20260504194202 | 24 | 261 | 3.2 | 12.9 | 0.00 | 0.00 | 0.00 | 27 | 1006.3 |
| 20260504194002 | 23 | 266 | 4.8 | 12.9 | 0.00 | 0.00 | 0.00 | 26 | 1006.4 |
| 20260504193601 | 23 | 294 | 1.6 | 11.3 | 0.00 | 0.00 | 0.00 | 29 | 1006.4 |
| 20260504193402 | 23 | 252 | 4.8 | 11.3 | 0.00 | 0.00 | 0.00 | 27 | 1006.4 |
| 20260504193201 | 23 | 138 | 4.8 | 9.7 | 0.00 | 0.00 | 0.00 | 28 | 1006.5 |
| 20260504192802 | 23 | 90 | 4.8 | 11.3 | 0.00 | 0.00 | 0.00 | 26 | 1006.5 |
| 20260504192603 | 23 | 40 | 3.2 | 9.7 | 0.00 | 0.00 | 0.00 | 26 | 1006.6 |
| 20260504192401 | 23 | 298 | 4.8 | 11.3 | 0.00 | 0.00 | 0.00 | 27 | 1006.7 |
| 20260504191801 | 23 | 348 | 4.8 | 14.5 | 0.00 | 0.00 | 0.00 | 27 | 1006.7 |
| 20260504191401 | 23 | 311 | 4.8 | 14.5 | 0.00 | 0.00 | 0.00 | 27 | 1006.7 |
| 20260504191202 | 22 | 304 | 6.4 | 14.5 | 0.00 | 0.00 | 0.00 | 27 | 1006.8 |
| 20260504191003 | 23 | 317 | 6.4 | 14.5 | 0.00 | 0.00 | 0.00 | 27 | 1006.7 |
| 20260504190801 | 23 | 307 | 4.8 | 12.9 | 0.00 | 0.00 | 0.00 | 26 | 1006.7 |
| 20260504190601 | 23 | 317 | 4.8 | 12.9 | 0.00 | 0.00 | 0.00 | 26 | 1006.8 |
| 20260504190202 | 23 | 279 | 6.4 | 12.9 | 0.00 | 0.00 | 0.00 | 27 | 1006.8 |
| 20260504190005 | 23 | 252 | 8.0 | 12.9 | 0.00 | 0.00 | 0.00 | 26 | 1006.8 |
| 20260504185801 | 23 | 268 | 4.8 | 12.9 | 0.00 | 0.00 | 0.00 | 25 | 1006.8 |
| 20260504185602 | 23 | 286 | 4.8 | 12.9 | 0.00 | 0.00 | 0.00 | 27 | 1006.8 |
| 20260504185402 | 23 | 205 | 1.6 | 9.7 | 0.00 | 0.00 | 0.00 | 28 | 1006.9 |
| 20260504185201 | 22 | 300 | 3.2 | 11.3 | 0.00 | 0.00 | 0.00 | 30 | 1006.8 |
| 20260504185002 | 22 | 306 | 3.2 | 11.3 | 0.00 | 0.00 | 0.00 | 26 | 1006.9 |
| 20260504184802 | 23 | 291 | 6.4 | 11.3 | 0.00 | 0.00 | 0.00 | 26 | 1006.9 |
| 20260504184601 | 23 | 254 | 3.2 | 11.3 | 0.00 | 0.00 | 0.00 | 27 | 1006.8 |
| 20260504184401 | 23 | 223 | 6.4 | 11.3 | 0.00 | 0.00 | 0.00 | 27 | 1006.9 |
| 20260504184202 | 23 | 217 | 4.8 | 11.3 | 0.00 | 0.00 | 0.00 | 27 | 1006.9 |
| 20260504183802 | 22 | 85 | 3.2 | 16.1 | 0.00 | 0.00 | 0.00 | 29 | 1006.9 |
| 20260504183602 | 22 | 146 | 3.2 | 16.1 | 0.00 | 0.00 | 0.00 | 27 | 1006.9 |
| 20260504183401 | 22 | 168 | 4.8 | 16.1 | 0.00 | 0.00 | 0.00 | 28 | 1007.0 |
| 20260504183201 | 23 | 194 | 8.0 | 16.1 | 0.00 | 0.00 | 0.00 | 28 | 1007.1 |
| 20260504183001 | 23 | 194 | 4.8 | 11.3 | 0.00 | 0.00 | 0.00 | 27 | 1007.2 |
| 20260504182802 | 23 | 121 | 3.2 | 8.0 | 0.00 | 0.00 | 0.00 | 29 | 1007.2 |
| 20260504182602 | 23 | 173 | 1.6 | 8.0 | 0.00 | 0.00 | 0.00 | 28 | 1007.2 |
| 20260504182401 | 23 | 267 | 1.6 | 8.0 | 0.00 | 0.00 | 0.00 | 28 | 1007.2 |
| 20260504182202 | 23 | 278 | 3.2 | 8.0 | 0.00 | 0.00 | 0.00 | 28 | 1007.2 |
| 20260504182001 | 23 | 169 | 1.6 | 9.7 | 0.00 | 0.00 | 0.00 | 29 | 1007.3 |
| 20260504181801 | 22 | 221 | 1.6 | 9.7 | 0.00 | 0.00 | 0.00 | 27 | 1007.3 |
| 20260504181601 | 22 | 299 | 1.6 | 9.7 | 0.00 | 0.00 | 0.00 | 28 | 1007.3 |
| 20260504181401 | 22 | 333 | 1.6 | 9.7 | 0.00 | 0.00 | 0.00 | 28 | 1007.4 |
| 20260504181002 | 22 | 343 | 3.2 | 8.0 | 0.00 | 0.00 | 0.00 | 29 | 1007.4 |
| 20260504180801 | 22 | 331 | 3.2 | 9.7 | 0.00 | 0.00 | 0.00 | 28 | 1007.5 |
| 20260504180601 | 22 | 51 | 1.6 | 11.3 | 0.00 | 0.00 | 0.00 | 28 | 1007.5 |
| 20260504180201 | 22 | 192 | 4.8 | 11.3 | 0.00 | 0.00 | 0.00 | 28 | 1007.6 |
| 20260504180004 | 22 | 180 | 4.8 | 11.3 | 0.00 | 0.00 | 0.00 | 28 | 1007.6 |
| 20260504175802 | 22 | 215 | 8.0 | 14.5 | 0.00 | 0.00 | 0.00 | 28 | 1007.6 |
| 20260504175403 | 22 | 239 | 3.2 | 14.5 | 0.00 | 0.00 | 0.00 | 28 | 1007.6 |
| 20260504175202 | 22 | 187 | 3.2 | 14.5 | 0.00 | 0.00 | 0.00 | 28 | 1007.7 |
| 20260504175001 | 22 | 192 | 8.0 | 14.5 | 0.00 | 0.00 | 0.00 | 29 | 1007.8 |
| 20260504174802 | 22 | 169 | 1.6 | 8.0 | 0.00 | 0.00 | 0.00 | 28 | 1007.8 |
| 20260504174602 | 22 | 168 | 1.6 | 8.0 | 0.00 | 0.00 | 0.00 | 27 | 1007.7 |
| 20260504174401 | 22 | 169 | 3.2 | 9.7 | 0.00 | 0.00 | 0.00 | 29 | 1007.7 |
| 20260504174201 | 22 | 206 | 1.6 | 8.0 | 0.00 | 0.00 | 0.00 | 28 | 1007.7 |
| 20260504174001 | 22 | 206 | 3.2 | 8.0 | 0.00 | 0.00 | 0.00 | 28 | 1007.8 |
| 20260504173802 | 23 | 196 | 4.8 | 8.0 | 0.00 | 0.00 | 0.00 | 28 | 1007.8 |
| 20260504173601 | 23 | 181 | 1.6 | 6.4 | 0.00 | 0.00 | 0.00 | 34 | 1007.8 |
| 20260504173401 | 22 | 101 | 1.6 | 6.4 | 0.00 | 0.00 | 0.00 | 31 | 1007.8 |
| 20260504172801 | 22 | 202 | 1.6 | 9.7 | 0.00 | 0.00 | 0.00 | 30 | 1007.9 |
| 20260504172601 | 22 | 211 | 1.6 | 9.7 | 0.00 | 0.00 | 0.00 | 30 | 1007.8 |
| 20260504172401 | 22 | 209 | 3.2 | 9.7 | 0.00 | 0.00 | 0.00 | 29 | 1007.9 |
| 20260504172202 | 22 | 165 | 1.6 | 8.0 | 0.00 | 0.00 | 0.00 | 29 | 1007.9 |
| 20260504172002 | 22 | 164 | 3.2 | 8.0 | 0.00 | 0.00 | 0.00 | 28 | 1007.9 |
| 20260504171601 | 22 | 168 | 3.2 | 8.0 | 0.00 | 0.00 | 0.00 | 29 | 1007.9 |
| 20260504171402 | 22 | 211 | 3.2 | 11.3 | 0.00 | 0.00 | 0.00 | 33 | 1007.9 |
| 20260504171202 | 22 | 202 | 3.2 | 11.3 | 0.00 | 0.00 | 0.00 | 32 | 1007.9 |
| 20260504170802 | 21 | 205 | 4.8 | 11.3 | 0.00 | 0.00 | 0.00 | 32 | 1007.9 |
| 20260504170601 | 21 | 173 | 6.4 | 11.3 | 0.00 | 0.00 | 0.00 | 31 | 1007.9 |
| 20260504170401 | 22 | 202 | 4.8 | 11.3 | 0.00 | 0.00 | 0.00 | 31 | 1007.9 |
| 20260504170201 | 22 | 215 | 3.2 | 11.3 | 0.00 | 0.00 | 0.00 | 30 | 1007.9 |
| 20260504151001 | 19 | 183 | 1.6 | 9.7 | 0.00 | 0.00 | 0.00 | 41 | 1008.4 |
| 20260504150602 | 19 | 199 | 4.8 | 9.7 | 0.00 | 0.00 | 0.00 | 40 | 1008.4 |
| 20260504150401 | 19 | 188 | 4.8 | 8.0 | 0.00 | 0.00 | 0.00 | 40 | 1008.4 |
| 20260504150201 | 19 | 198 | 1.6 | 6.4 | 0.00 | 0.00 | 0.00 | 41 | 1008.4 |
| 20260504141001 | 18 | 109 | 0.0 | 3.2 | 0.00 | 0.00 | 0.00 | 36 | 1008.5 |
| 20260504140801 | 18 | 108 | 0.0 | 1.6 | 0.00 | 0.00 | 0.00 | 37 | 1008.5 |
| 20260504140601 | 18 | 108 | 0.0 | 0.0 | 0.00 | 0.00 | 0.00 | 37 | 1008.5 |
| 20260504140401 | 18 | 108 | 0.0 | 0.0 | 0.00 | 0.00 | 0.00 | 38 | 1008.4 |
| 20260504130800 | 12 | 96 | 1.6 | 4.8 | 0.00 | 0.00 | 0.00 | 48 | 1008.4 |
| 20260504130600 | 12 | 68 | 0.0 | 0.0 | 0.00 | 0.00 | 0.00 | 48 | 1008.4 |
| 20260504130400 | 12 | 68 | 0.0 | 1.6 | 0.00 | 0.00 | 0.00 | 47 | 1008.4 |
| 20260504130200 | 12 | 68 | 0.0 | 3.2 | 0.00 | 0.00 | 0.00 | 47 | 1008.4 |
| 20260504120201 | 11 | 68 | 0.0 | 0.0 | 0.00 | 0.00 | 0.00 | 46 | 1008.4 |
| 20260504110359 | 12 | 68 | 1.6 | 4.8 | 0.00 | 0.00 | 0.00 | 43 | 1008.5 |
| 20260504110200 | 12 | 68 | 1.6 | 4.8 | 0.00 | 0.00 | 0.00 | 43 | 1008.5 |
| 20260504100600 | 12 | 28 | 0.0 | 0.0 | 0.00 | 0.00 | 0.00 | 46 | 1008.2 |
| 20260504100400 | 12 | 28 | 0.0 | 0.0 | 0.00 | 0.00 | 0.00 | 46 | 1008.2 |
| 20260504100200 | 12 | 28 | 0.0 | 0.0 | 0.00 | 0.00 | 0.00 | 46 | 1008.2 |
| 20260504081801 | 12 | 24 | 0.0 | 0.0 | 0.00 | 0.00 | 0.00 | 40 | 1007.3 |
| 20260504081601 | 12 | 24 | 0.0 | 0.0 | 0.00 | 0.00 | 0.00 | 39 | 1007.4 |
| 20260504081401 | 12 | 24 | 0.0 | 0.0 | 0.00 | 0.00 | 0.00 | 39 | 1007.3 |
| 20260504081000 | 13 | 24 | 0.0 | 0.0 | 0.00 | 0.00 | 0.00 | 38 | 1007.3 |
| 20260504080800 | 13 | 24 | 0.0 | 0.0 | 0.00 | 0.00 | 0.00 | 38 | 1007.3 |
| 20260504080601 | 13 | 24 | 0.0 | 0.0 | 0.00 | 0.00 | 0.00 | 38 | 1007.3 |
| 20260504080400 | 13 | 24 | 0.0 | 0.0 | 0.00 | 0.00 | 0.00 | 38 | 1007.3 |
| 20260504080200 | 13 | 24 | 0.0 | 0.0 | 0.00 | 0.00 | 0.00 | 37 | 1007.4 |
| 20260504070400 | 13 | 24 | 0.0 | 0.0 | 0.00 | 0.00 | 0.00 | 35 | 1007.6 |
| 20260504070200 | 13 | 24 | 0.0 | 0.0 | 0.00 | 0.00 | 0.00 | 35 | 1007.6 |
| 20260504060203 | 15 | 24 | 0.0 | 0.0 | 0.00 | 0.00 | 0.00 | 32 | 1007.5 |
| 20260504050602 | 16 | 24 | 0.0 | 0.0 | 0.00 | 0.00 | 0.00 | 27 | 1007.8 |
| 20260504050002 | 16 | 24 | 0.0 | 0.0 | 0.00 | 0.00 | 0.00 | 27 | 1007.8 |
| 20260504045804 | 16 | 25 | 0.0 | 0.0 | 0.00 | 0.00 | 0.00 | 27 | 1007.8 |
| 20260504045602 | 17 | 25 | 0.0 | 0.0 | 0.00 | 0.00 | 0.00 | 27 | 1007.8 |
| 20260504045402 | 17 | 26 | 0.0 | 0.0 | 0.00 | 0.00 | 0.00 | 27 | 1007.8 |
| 20260504045202 | 17 | 26 | 0.0 | 0.0 | 0.00 | 0.00 | 0.00 | 27 | 1007.8 |
| 20260504045003 | 17 | 26 | 0.0 | 0.0 | 0.00 | 0.00 | 0.00 | 27 | 1007.8 |
| 20260504044803 | 17 | 26 | 0.0 | 0.0 | 0.00 | 0.00 | 0.00 | 27 | 1007.8 |
| 20260504044604 | 17 | 26 | 0.0 | 0.0 | 0.00 | 0.00 | 0.00 | 27 | 1007.8 |
| 20260504044202 | 17 | 26 | 0.0 | 0.0 | 0.00 | 0.00 | 0.00 | 27 | 1007.9 |
| 20260504044002 | 17 | 26 | 0.0 | 0.0 | 0.00 | 0.00 | 0.00 | 27 | 1007.9 |
| 20260504043402 | 17 | 26 | 0.0 | 0.0 | 0.00 | 0.00 | 0.00 | 27 | 1007.9 |
| 20260504043204 | 17 | 26 | 0.0 | 0.0 | 0.00 | 0.00 | 0.00 | 27 | 1007.9 |
| 20260504042803 | 17 | 26 | 0.0 | 0.0 | 0.00 | 0.00 | 0.00 | 27 | 1007.9 |
| 20260504042602 | 17 | 26 | 0.0 | 0.0 | 0.00 | 0.00 | 0.00 | 27 | 1007.8 |
| 20260504042403 | 17 | 26 | 0.0 | 0.0 | 0.00 | 0.00 | 0.00 | 27 | 1007.9 |
| 20260504042202 | 17 | 26 | 0.0 | 1.6 | 0.00 | 0.00 | 0.00 | 27 | 1007.9 |
| 20260504041803 | 17 | 26 | 0.0 | 1.6 | 0.00 | 0.00 | 0.00 | 26 | 1007.9 |
| 20260504041603 | 17 | 26 | 0.0 | 3.2 | 0.00 | 0.00 | 0.00 | 26 | 1007.9 |
| 20260504041401 | 17 | 26 | 0.0 | 3.2 | 0.00 | 0.00 | 0.00 | 26 | 1007.9 |
| 20260504041203 | 17 | 26 | 0.0 | 3.2 | 0.00 | 0.00 | 0.00 | 26 | 1007.9 |
| 20260504041002 | 17 | 26 | 0.0 | 3.2 | 0.00 | 0.00 | 0.00 | 26 | 1007.9 |
| 20260504040802 | 18 | 26 | 0.0 | 3.2 | 0.00 | 0.00 | 0.00 | 26 | 1007.9 |
| 20260504040602 | 18 | 26 | 0.0 | 3.2 | 0.00 | 0.00 | 0.00 | 26 | 1007.9 |
| 20260504040202 | 18 | 26 | 1.6 | 3.2 | 0.00 | 0.00 | 0.00 | 26 | 1007.9 |
| 20260504040005 | 18 | 26 | 1.6 | 3.2 | 0.00 | 0.00 | 0.00 | 26 | 1007.9 |
| 20260504035804 | 18 | 26 | 1.6 | 3.2 | 0.00 | 0.00 | 0.00 | 26 | 1007.9 |